| time (UTC) | temp F | wind direction | speed knots | gust knots | rain 1hr in | rain 24hr in | rain mn in | humidity % | barometer mb |
| 20260507081701 | 55 | 30 | 3.5 | 8.7 | 0.00 | 0.00 | 0.00 | 77 | 1015.1 |
| 20260507081200 | 56 | 44 | 3.5 | 9.6 | 0.00 | 0.00 | 0.00 | 79 | 1015.1 |
| 20260507080656 | 55 | 43 | 3.5 | 9.6 | 0.00 | 0.00 | 0.00 | 78 | 1015.2 |
| 20260507080155 | 55 | 32 | 4.3 | 8.7 | 0.00 | 0.00 | 0.00 | 78 | 1015.1 |
| 20260507075652 | 56 | 22 | 4.3 | 8.7 | 0.00 | 0.00 | 0.00 | 79 | 1015.0 |
| 20260507075152 | 56 | 18 | 4.3 | 8.7 | 0.00 | 0.00 | 0.00 | 78 | 1015.0 |
| 20260507074653 | 55 | 40 | 3.5 | 9.6 | 0.00 | 0.00 | 0.00 | 79 | 1015.0 |
| 20260507074153 | 55 | 70 | 3.5 | 9.6 | 0.00 | 0.00 | 0.00 | 80 | 1015.1 |
| 20260507073645 | 55 | 43 | 5.2 | 9.6 | 0.00 | 0.00 | 0.00 | 79 | 1015.0 |
| 20260507073143 | 55 | 76 | 5.2 | 9.6 | 0.00 | 0.00 | 0.00 | 79 | 1015.0 |
| 20260507072642 | 55 | 29 | 3.5 | 9.6 | 0.00 | 0.00 | 0.00 | 80 | 1015.0 |
| 20260507072400 | 54 | 46 | 3.5 | 8.7 | 0.00 | 0.00 | 0.00 | 81 | 1014.9 |
| 20260507071640 | 54 | 15 | 3.5 | 10.4 | 0.00 | 0.00 | 0.00 | 81 | 1014.9 |
| 20260507071140 | 54 | 40 | 4.3 | 10.4 | 0.00 | 0.00 | 0.00 | 81 | 1015.0 |
| 20260507070858 | 54 | 80 | 4.3 | 9.6 | 0.00 | 0.00 | 0.00 | 83 | 1014.9 |
| 20260507070137 | 53 | 26 | 3.5 | 9.6 | 0.00 | 0.00 | 0.00 | 84 | 1014.7 |
| 20260507065912 | 53 | 73 | 3.5 | 7.8 | 0.00 | 0.00 | 0.00 | 86 | 1014.9 |
| 20260507065136 | 52 | 75 | 3.5 | 8.7 | 0.00 | 0.00 | 0.00 | 87 | 1014.8 |
| 20260507064903 | 51 | 66 | 3.5 | 8.7 | 0.00 | 0.00 | 0.00 | 87 | 1014.8 |
| 20260507064130 | 51 | 105 | 3.5 | 10.4 | 0.00 | 0.00 | 0.00 | 87 | 1014.7 |
| 20260507063628 | 50 | 35 | 4.3 | 10.4 | 0.00 | 0.00 | 0.00 | 87 | 1014.7 |
| 20260507063120 | 50 | 49 | 4.3 | 7.8 | 0.00 | 0.00 | 0.00 | 87 | 1014.5 |
| 20260507062621 | 50 | 19 | 4.3 | 9.6 | 0.00 | 0.00 | 0.00 | 88 | 1014.4 |
| 20260507062118 | 50 | 40 | 4.3 | 9.6 | 0.00 | 0.00 | 0.00 | 88 | 1014.4 |
| 20260507061615 | 50 | 54 | 4.3 | 8.7 | 0.00 | 0.00 | 0.00 | 88 | 1014.3 |
| 20260507061109 | 50 | 28 | 3.5 | 10.4 | 0.00 | 0.00 | 0.00 | 88 | 1014.2 |
| 20260507060609 | 49 | 65 | 4.3 | 10.4 | 0.00 | 0.00 | 0.00 | 88 | 1014.2 |
| 20260507060113 | 49 | 40 | 5.2 | 10.4 | 0.00 | 0.00 | 0.00 | 88 | 1014.2 |
| 20260507055608 | 49 | 54 | 4.3 | 10.4 | 0.00 | 0.00 | 0.00 | 88 | 1014.2 |
| 20260507055109 | 49 | 108 | 3.5 | 9.6 | 0.00 | 0.00 | 0.00 | 89 | 1014.1 |
| 20260507054833 | 49 | 69 | 4.3 | 9.6 | 0.00 | 0.00 | 0.00 | 89 | 1014.0 |
| 20260507054105 | 49 | 46 | 4.3 | 9.6 | 0.00 | 0.00 | 0.00 | 89 | 1014.0 |
| 20260507053604 | 49 | 24 | 3.5 | 8.7 | 0.00 | 0.00 | 0.00 | 89 | 1013.9 |
| 20260507052602 | 49 | 60 | 5.2 | 10.4 | 0.00 | 0.00 | 0.00 | 89 | 1013.8 |
| 20260507052319 | 49 | 34 | 3.5 | 8.7 | 0.00 | 0.00 | 0.00 | 89 | 1013.8 |
| 20260507051602 | 49 | 29 | 3.5 | 7.8 | 0.00 | 0.00 | 0.00 | 89 | 1013.8 |
| 20260507051100 | 49 | 31 | 3.5 | 7.8 | 0.00 | 0.00 | 0.00 | 89 | 1013.7 |
| 20260507050601 | 49 | 44 | 3.5 | 10.4 | 0.00 | 0.00 | 0.00 | 89 | 1013.8 |
| 20260507050108 | 49 | 40 | 3.5 | 10.4 | 0.00 | 0.00 | 0.00 | 89 | 1013.7 |
| 20260507045558 | 49 | 40 | 3.5 | 8.7 | 0.00 | 0.00 | 0.00 | 89 | 1013.5 |
| 20260507045057 | 48 | 41 | 3.5 | 8.7 | 0.00 | 0.00 | 0.00 | 89 | 1013.5 |
| 20260507044540 | 48 | 55 | 4.3 | 7.8 | 0.00 | 0.00 | 0.00 | 89 | 1013.6 |
| 20260507044306 | 48 | 32 | 5.2 | 10.4 | 0.00 | 0.00 | 0.00 | 89 | 1013.5 |
| 20260507043528 | 48 | 40 | 5.2 | 11.3 | 0.00 | 0.00 | 0.00 | 89 | 1013.4 |
| 20260507043253 | 48 | 48 | 5.2 | 11.3 | 0.00 | 0.00 | 0.00 | 89 | 1013.4 |
| 20260507042747 | 48 | 42 | 4.3 | 8.7 | 0.00 | 0.00 | 0.00 | 89 | 1013.4 |
| 20260507042026 | 48 | 59 | 3.5 | 7.8 | 0.00 | 0.00 | 0.00 | 88 | 1013.4 |
| 20260507041751 | 48 | 36 | 4.3 | 9.6 | 0.00 | 0.00 | 0.00 | 88 | 1013.4 |
| 20260507041023 | 48 | 28 | 4.3 | 9.6 | 0.00 | 0.00 | 0.00 | 88 | 1013.3 |
| 20260507040517 | 48 | 35 | 4.3 | 8.7 | 0.00 | 0.00 | 0.00 | 88 | 1013.3 |
| 20260507040021 | 48 | 57 | 3.5 | 8.7 | 0.00 | 0.00 | 0.00 | 88 | 1013.3 |
| 20260507035516 | 48 | 36 | 4.3 | 8.7 | 0.00 | 0.00 | 0.00 | 88 | 1013.2 |
| 20260507035020 | 48 | 22 | 3.5 | 7.8 | 0.00 | 0.00 | 0.00 | 88 | 1013.1 |
| 20260507034517 | 48 | 35 | 3.5 | 7.0 | 0.00 | 0.00 | 0.00 | 87 | 1013.1 |
| 20260507034019 | 48 | 35 | 3.5 | 7.8 | 0.00 | 0.00 | 0.00 | 87 | 1013.0 |
| 20260507033735 | 48 | 26 | 4.3 | 7.8 | 0.00 | 0.00 | 0.00 | 87 | 1013.0 |
| 20260507033021 | 48 | 35 | 5.2 | 9.6 | 0.00 | 0.00 | 0.00 | 87 | 1013.0 |
| 20260507032723 | 48 | 36 | 4.3 | 8.7 | 0.00 | 0.00 | 0.00 | 87 | 1012.9 |
| 20260507032619 | 48 | 34 | 4.3 | 9.6 | 0.00 | 0.00 | 0.00 | 87 | 1012.9 |
| 20260507031516 | 48 | 355 | 4.3 | 9.6 | 0.00 | 0.00 | 0.00 | 87 | 1012.9 |
| 20260507031246 | 48 | 29 | 5.2 | 9.6 | 0.00 | 0.00 | 0.00 | 86 | 1012.9 |
| 20260507030516 | 48 | 25 | 4.3 | 9.6 | 0.00 | 0.00 | 0.00 | 86 | 1012.9 |
| 20260507030020 | 48 | 42 | 4.3 | 7.8 | 0.00 | 0.00 | 0.00 | 86 | 1012.8 |
| 20260507025516 | 48 | 49 | 4.3 | 9.6 | 0.00 | 0.00 | 0.00 | 86 | 1012.8 |
| 20260507025020 | 48 | 62 | 4.3 | 10.4 | 0.00 | 0.00 | 0.00 | 86 | 1012.9 |
| 20260507024516 | 48 | 10 | 5.2 | 11.3 | 0.00 | 0.00 | 0.00 | 86 | 1012.9 |
| 20260507024021 | 48 | 5 | 5.2 | 12.2 | 0.00 | 0.00 | 0.00 | 86 | 1012.8 |
| 20260507023516 | 48 | 26 | 4.3 | 12.2 | 0.00 | 0.00 | 0.00 | 86 | 1012.8 |
| 20260507023021 | 48 | 39 | 4.3 | 9.6 | 0.00 | 0.00 | 0.00 | 85 | 1012.7 |
| 20260507022515 | 48 | 21 | 4.3 | 9.6 | 0.00 | 0.00 | 0.00 | 85 | 1012.7 |
| 20260507022020 | 48 | 38 | 4.3 | 9.6 | 0.00 | 0.00 | 0.00 | 85 | 1012.7 |
| 20260507021515 | 48 | 34 | 4.3 | 11.3 | 0.00 | 0.00 | 0.00 | 85 | 1012.5 |
| 20260507021019 | 48 | 27 | 4.3 | 11.3 | 0.00 | 0.00 | 0.00 | 85 | 1012.6 |
| 20260507020517 | 48 | 40 | 4.3 | 11.3 | 0.00 | 0.00 | 0.00 | 84 | 1012.5 |
| 20260507020020 | 48 | 41 | 4.3 | 11.3 | 0.00 | 0.00 | 0.00 | 84 | 1012.4 |
| 20260507015516 | 48 | 43 | 5.2 | 11.3 | 0.00 | 0.00 | 0.00 | 84 | 1012.4 |
| 20260507015019 | 48 | 25 | 5.2 | 12.2 | 0.00 | 0.00 | 0.00 | 84 | 1012.4 |
| 20260507014529 | 48 | 74 | 6.1 | 12.2 | 0.00 | 0.00 | 0.00 | 83 | 1012.4 |
| 20260507014019 | 48 | 25 | 6.1 | 10.4 | 0.00 | 0.00 | 0.00 | 83 | 1012.4 |
| 20260507013516 | 48 | 13 | 6.1 | 11.3 | 0.00 | 0.00 | 0.00 | 83 | 1012.4 |
| 20260507013020 | 48 | 27 | 5.2 | 11.3 | 0.00 | 0.00 | 0.00 | 82 | 1012.4 |
| 20260507012516 | 48 | 23 | 6.1 | 11.3 | 0.00 | 0.00 | 0.00 | 82 | 1012.4 |
| 20260507012019 | 48 | 11 | 6.1 | 11.3 | 0.00 | 0.00 | 0.00 | 82 | 1012.3 |
| 20260507011530 | 48 | 51 | 5.2 | 11.3 | 0.00 | 0.00 | 0.00 | 82 | 1012.3 |
| 20260507011019 | 48 | 34 | 5.2 | 11.3 | 0.00 | 0.00 | 0.00 | 82 | 1012.2 |
| 20260507010516 | 48 | 25 | 6.1 | 11.3 | 0.00 | 0.00 | 0.00 | 81 | 1012.2 |
| 20260507010019 | 48 | 47 | 7.0 | 13.9 | 0.00 | 0.00 | 0.00 | 81 | 1012.2 |
| 20260507005742 | 48 | 37 | 7.0 | 13.9 | 0.00 | 0.00 | 0.00 | 81 | 1012.1 |
| 20260507005019 | 48 | 38 | 6.1 | 11.3 | 0.00 | 0.00 | 0.00 | 81 | 1012.2 |
| 20260507004516 | 48 | 34 | 6.1 | 11.3 | 0.00 | 0.00 | 0.00 | 81 | 1012.2 |
| 20260507004020 | 48 | 15 | 6.1 | 11.3 | 0.00 | 0.00 | 0.00 | 81 | 1012.2 |
| 20260507003515 | 48 | 36 | 6.1 | 11.3 | 0.00 | 0.00 | 0.00 | 82 | 1012.2 |
| 20260507003020 | 48 | 24 | 6.1 | 11.3 | 0.00 | 0.00 | 0.00 | 82 | 1012.2 |
| 20260507002516 | 48 | 34 | 6.1 | 11.3 | 0.00 | 0.00 | 0.00 | 82 | 1012.1 |
| 20260507002020 | 48 | 42 | 5.2 | 11.3 | 0.00 | 0.00 | 0.00 | 82 | 1012.2 |
| 20260507001515 | 48 | 18 | 6.1 | 13.0 | 0.00 | 0.00 | 0.00 | 82 | 1012.2 |
| 20260507001021 | 48 | 24 | 6.1 | 13.0 | 0.00 | 0.00 | 0.00 | 81 | 1012.1 |
| 20260507000529 | 48 | 30 | 5.2 | 13.0 | 0.00 | 0.00 | 0.00 | 81 | 1012.0 |
| 20260507000022 | 48 | 49 | 5.2 | 13.0 | 0.00 | 0.00 | 0.00 | 81 | 1012.1 |
| 20260506235516 | 48 | 32 | 5.2 | 11.3 | 0.00 | 0.00 | 0.00 | 81 | 1012.1 |
| 20260506235020 | 48 | 36 | 6.1 | 11.3 | 0.00 | 0.00 | 0.00 | 81 | 1012.1 |
| 20260506234516 | 48 | 42 | 7.0 | 13.0 | 0.00 | 0.00 | 0.00 | 81 | 1012.2 |
| 20260506234020 | 48 | 40 | 6.1 | 13.0 | 0.00 | 0.00 | 0.00 | 81 | 1012.2 |
| 20260506233530 | 48 | 17 | 6.1 | 13.0 | 0.00 | 0.00 | 0.00 | 81 | 1012.2 |
| 20260506233007 | 48 | 44 | 7.0 | 13.0 | 0.00 | 0.00 | 0.00 | 81 | 1012.2 |
| 20260506232520 | 48 | 31 | 6.1 | 13.0 | 0.00 | 0.00 | 0.00 | 82 | 1012.2 |
| 20260506232008 | 48 | 36 | 7.0 | 14.8 | 0.00 | 0.00 | 0.00 | 82 | 1012.2 |
| 20260506231508 | 48 | 9 | 7.8 | 14.8 | 0.00 | 0.00 | 0.00 | 82 | 1012.2 |
| 20260506231009 | 48 | 61 | 7.0 | 13.9 | 0.00 | 0.00 | 0.00 | 82 | 1012.1 |
| 20260506230731 | 48 | 51 | 6.1 | 13.0 | 0.00 | 0.00 | 0.00 | 82 | 1012.2 |
| 20260506230007 | 48 | 28 | 6.1 | 13.0 | 0.00 | 0.00 | 0.00 | 82 | 1012.2 |
| 20260506225507 | 48 | 26 | 6.1 | 13.0 | 0.00 | 0.00 | 0.00 | 82 | 1012.2 |
| 20260506225007 | 48 | 61 | 6.1 | 13.0 | 0.00 | 0.00 | 0.00 | 82 | 1012.2 |
| 20260506224507 | 48 | 38 | 5.2 | 13.0 | 0.00 | 0.00 | 0.00 | 82 | 1012.2 |
| 20260506224457 | 48 | 46 | 4.3 | 10.4 | 0.00 | 0.00 | 0.00 | 82 | 1012.2 |
| 20260506223520 | 48 | 49 | 6.1 | 13.0 | 0.00 | 0.00 | 0.00 | 82 | 1012.2 |
| 20260506223008 | 48 | 46 | 6.1 | 13.0 | 0.00 | 0.00 | 0.00 | 81 | 1012.2 |
| 20260506222507 | 48 | 51 | 6.1 | 12.2 | 0.00 | 0.00 | 0.00 | 81 | 1012.2 |
| 20260506222007 | 48 | 63 | 6.1 | 12.2 | 0.00 | 0.00 | 0.00 | 81 | 1012.2 |
| 20260506221706 | 48 | 58 | 6.1 | 13.9 | 0.00 | 0.00 | 0.00 | 81 | 1012.3 |
| 20260506221540 | 48 | 38 | 6.1 | 12.2 | 0.00 | 0.00 | 0.00 | 81 | 1012.3 |
| 20260506220450 | 47 | 32 | 7.0 | 13.9 | 0.00 | 0.00 | 0.00 | 81 | 1012.2 |
| 20260506215950 | 47 | 44 | 7.0 | 13.0 | 0.00 | 0.00 | 0.00 | 81 | 1012.2 |
| 20260506215715 | 47 | 33 | 7.0 | 13.9 | 0.00 | 0.00 | 0.00 | 81 | 1012.2 |
| 20260506215213 | 47 | 36 | 6.1 | 15.6 | 0.00 | 0.00 | 0.00 | 82 | 1012.0 |
| 20260506214449 | 47 | 44 | 6.1 | 15.6 | 0.00 | 0.00 | 0.00 | 82 | 1012.0 |
| 20260506213949 | 47 | 36 | 5.2 | 13.9 | 0.00 | 0.00 | 0.00 | 82 | 1012.0 |
| 20260506213449 | 47 | 24 | 5.2 | 10.4 | 0.00 | 0.00 | 0.00 | 82 | 1011.9 |
| 20260506213215 | 47 | 44 | 5.2 | 11.3 | 0.00 | 0.00 | 0.00 | 82 | 1012.0 |
| 20260506212450 | 47 | 30 | 6.1 | 11.3 | 0.00 | 0.00 | 0.00 | 82 | 1012.0 |
| 20260506211948 | 47 | 25 | 6.1 | 12.2 | 0.00 | 0.00 | 0.00 | 82 | 1012.0 |
| 20260506211447 | 47 | 5 | 6.1 | 12.2 | 0.00 | 0.00 | 0.00 | 82 | 1011.9 |
| 20260506210948 | 47 | 22 | 6.1 | 12.2 | 0.00 | 0.00 | 0.00 | 83 | 1011.9 |
| 20260506210711 | 47 | 38 | 6.1 | 11.3 | 0.00 | 0.00 | 0.00 | 82 | 1011.9 |
| 20260506205945 | 47 | 40 | 6.1 | 11.3 | 0.00 | 0.00 | 0.00 | 82 | 1011.9 |
| 20260506205445 | 47 | 54 | 6.1 | 11.3 | 0.00 | 0.00 | 0.00 | 82 | 1011.9 |
| 20260506204945 | 47 | 55 | 5.2 | 11.3 | 0.00 | 0.00 | 0.00 | 83 | 1011.9 |
| 20260506204442 | 47 | 42 | 6.1 | 13.9 | 0.00 | 0.00 | 0.00 | 83 | 1011.9 |
| 20260506203938 | 48 | 22 | 6.1 | 13.9 | 0.00 | 0.00 | 0.00 | 83 | 1011.9 |
| 20260506203436 | 48 | 55 | 7.0 | 13.0 | 0.00 | 0.00 | 0.00 | 83 | 1011.8 |
| 20260506202932 | 48 | 20 | 7.0 | 13.0 | 0.00 | 0.00 | 0.00 | 83 | 1011.8 |
| 20260506202657 | 48 | 41 | 7.0 | 12.2 | 0.00 | 0.00 | 0.00 | 83 | 1011.9 |
| 20260506201931 | 48 | 36 | 6.1 | 13.0 | 0.00 | 0.00 | 0.00 | 83 | 1011.8 |
| 20260506201430 | 48 | 25 | 7.0 | 16.5 | 0.00 | 0.00 | 0.00 | 83 | 1011.9 |
| 20260506200927 | 48 | 45 | 7.8 | 16.5 | 0.00 | 0.00 | 0.00 | 83 | 1011.8 |
| 20260506200427 | 48 | 55 | 8.7 | 15.6 | 0.00 | 0.00 | 0.00 | 82 | 1011.7 |
| 20260506195925 | 48 | 54 | 8.7 | 15.6 | 0.00 | 0.00 | 0.00 | 82 | 1011.7 |
| 20260506195645 | 49 | 50 | 7.8 | 15.6 | 0.00 | 0.00 | 0.00 | 82 | 1011.7 |
| 20260506194925 | 49 | 26 | 7.8 | 16.5 | 0.00 | 0.00 | 0.00 | 81 | 1011.6 |
| 20260506194425 | 49 | 45 | 9.6 | 16.5 | 0.00 | 0.00 | 0.00 | 81 | 1011.6 |
| 20260506193925 | 49 | 43 | 7.8 | 14.8 | 0.00 | 0.00 | 0.00 | 81 | 1011.6 |
| 20260506193650 | 49 | 34 | 5.2 | 13.0 | 0.00 | 0.00 | 0.00 | 81 | 1011.6 |
| 20260506192925 | 49 | 40 | 5.2 | 12.2 | 0.00 | 0.00 | 0.00 | 81 | 1011.5 |
| 20260506192425 | 49 | 32 | 6.1 | 12.2 | 0.00 | 0.00 | 0.00 | 80 | 1011.6 |
| 20260506192138 | 49 | 36 | 7.8 | 14.8 | 0.00 | 0.00 | 0.00 | 80 | 1011.4 |
| 20260506191421 | 49 | 47 | 7.0 | 14.8 | 0.00 | 0.00 | 0.00 | 80 | 1011.3 |
| 20260506190918 | 49 | 36 | 5.2 | 13.9 | 0.00 | 0.00 | 0.00 | 80 | 1011.2 |
| 20260506190416 | 49 | 42 | 7.0 | 15.6 | 0.00 | 0.00 | 0.00 | 80 | 1011.2 |
| 20260506185904 | 49 | 15 | 7.8 | 15.6 | 0.00 | 0.00 | 0.00 | 80 | 1011.0 |
| 20260506185403 | 50 | 37 | 7.8 | 13.9 | 0.00 | 0.00 | 0.00 | 80 | 1011.0 |
| 20260506185130 | 50 | 9 | 7.0 | 13.9 | 0.00 | 0.00 | 0.00 | 80 | 1010.9 |
| 20260506184359 | 50 | 53 | 7.0 | 13.9 | 0.00 | 0.00 | 0.00 | 80 | 1010.9 |
| 20260506183853 | 50 | 35 | 7.0 | 13.9 | 0.00 | 0.00 | 0.00 | 79 | 1010.8 |
| 20260506183355 | 50 | 19 | 8.7 | 13.9 | 0.00 | 0.00 | 0.00 | 79 | 1010.8 |
| 20260506182849 | 50 | 19 | 7.8 | 14.8 | 0.00 | 0.00 | 0.00 | 79 | 1010.7 |
| 20260506182352 | 51 | 53 | 7.0 | 14.8 | 0.00 | 0.00 | 0.00 | 79 | 1010.7 |
| 20260506181849 | 51 | 59 | 7.8 | 14.8 | 0.00 | 0.00 | 0.00 | 79 | 1010.7 |
| 20260506181352 | 51 | 28 | 7.0 | 15.6 | 0.00 | 0.00 | 0.00 | 79 | 1010.7 |
| 20260506180845 | 51 | 51 | 7.0 | 15.6 | 0.00 | 0.00 | 0.00 | 79 | 1010.6 |
| 20260506180616 | 51 | 34 | 8.7 | 16.5 | 0.00 | 0.00 | 0.00 | 77 | 1010.5 |
| 20260506175803 | 51 | 66 | 7.8 | 16.5 | 0.00 | 0.00 | 0.00 | 78 | 1010.5 |
| 20260506175524 | 51 | 42 | 7.0 | 13.9 | 0.00 | 0.00 | 0.00 | 78 | 1010.5 |
| 20260506174802 | 51 | 34 | 7.8 | 14.8 | 0.00 | 0.00 | 0.00 | 77 | 1010.5 |
| 20260506174526 | 51 | 49 | 7.8 | 14.8 | 0.00 | 0.00 | 0.00 | 77 | 1010.5 |
| 20260506173804 | 51 | 33 | 8.7 | 15.6 | 0.00 | 0.00 | 0.00 | 77 | 1010.4 |
| 20260506173524 | 52 | 30 | 8.7 | 15.6 | 0.00 | 0.00 | 0.00 | 76 | 1010.5 |
| 20260506172801 | 52 | 65 | 7.8 | 14.8 | 0.00 | 0.00 | 0.00 | 76 | 1010.4 |
| 20260506172523 | 52 | 49 | 7.8 | 17.4 | 0.00 | 0.00 | 0.00 | 76 | 1010.4 |
| 20260506172022 | 52 | 31 | 7.8 | 17.4 | 0.00 | 0.00 | 0.00 | 75 | 1010.4 |
| 20260506171256 | 53 | 17 | 7.8 | 15.6 | 0.00 | 0.00 | 0.00 | 76 | 1010.3 |
| 20260506170756 | 53 | 30 | 7.0 | 13.9 | 0.00 | 0.00 | 0.00 | 75 | 1010.3 |
| 20260506170254 | 53 | 38 | 7.0 | 13.9 | 0.00 | 0.00 | 0.00 | 76 | 1010.3 |
| 20260506165754 | 53 | 24 | 7.8 | 18.2 | 0.00 | 0.00 | 0.00 | 75 | 1010.3 |
| 20260506165254 | 53 | 95 | 7.8 | 18.2 | 0.00 | 0.00 | 0.00 | 76 | 1010.3 |
| 20260506164748 | 53 | 19 | 9.6 | 16.5 | 0.00 | 0.00 | 0.00 | 74 | 1010.3 |
| 20260506164248 | 53 | 18 | 8.7 | 18.2 | 0.00 | 0.00 | 0.00 | 74 | 1010.2 |
| 20260506163744 | 53 | 40 | 8.7 | 18.2 | 0.00 | 0.00 | 0.00 | 73 | 1010.3 |
| 20260506163244 | 53 | 22 | 8.7 | 16.5 | 0.00 | 0.00 | 0.00 | 74 | 1010.3 |
| 20260506162742 | 53 | 40 | 9.6 | 19.1 | 0.00 | 0.00 | 0.00 | 73 | 1010.1 |
| 20260506162515 | 54 | 40 | 9.6 | 19.1 | 0.00 | 0.00 | 0.00 | 72 | 1010.1 |
| 20260506161958 | 54 | 19 | 10.4 | 20.0 | 0.00 | 0.00 | 0.00 | 71 | 1010.2 |
| 20260506161237 | 55 | 60 | 11.3 | 20.0 | 0.00 | 0.00 | 0.00 | 70 | 1010.2 |
| 20260506160738 | 55 | 16 | 10.4 | 18.2 | 0.00 | 0.00 | 0.00 | 70 | 1010.2 |
| 20260506160238 | 55 | 86 | 9.6 | 18.2 | 0.00 | 0.00 | 0.00 | 71 | 1010.2 |
| 20260506155738 | 55 | 47 | 10.4 | 20.0 | 0.00 | 0.00 | 0.00 | 71 | 1010.2 |
| 20260506155512 | 56 | 16 | 10.4 | 20.0 | 0.00 | 0.00 | 0.00 | 70 | 1010.2 |
| 20260506154737 | 56 | 48 | 8.7 | 15.6 | 0.00 | 0.00 | 0.00 | 71 | 1010.2 |
| 20260506154237 | 56 | 22 | 7.8 | 14.8 | 0.00 | 0.00 | 0.00 | 71 | 1010.2 |
| 20260506153737 | 55 | 55 | 9.6 | 16.5 | 0.00 | 0.00 | 0.00 | 73 | 1010.2 |
| 20260506153236 | 55 | 31 | 11.3 | 16.5 | 0.00 | 0.00 | 0.00 | 74 | 1010.1 |
| 20260506152734 | 54 | 35 | 11.3 | 18.2 | 0.00 | 0.00 | 0.00 | 75 | 1010.2 |
| 20260506152234 | 54 | 44 | 10.4 | 18.2 | 0.00 | 0.00 | 0.00 | 76 | 1010.1 |
| 20260506151957 | 54 | 47 | 10.4 | 17.4 | 0.00 | 0.00 | 0.00 | 77 | 1010.1 |
| 20260506151234 | 54 | 46 | 9.6 | 17.4 | 0.00 | 0.00 | 0.00 | 76 | 1010.0 |
| 20260506150733 | 54 | 28 | 9.6 | 16.5 | 0.00 | 0.00 | 0.00 | 77 | 1010.0 |
| 20260506150230 | 54 | 39 | 9.6 | 16.5 | 0.00 | 0.00 | 0.00 | 78 | 1009.9 |
| 20260506145730 | 54 | 32 | 10.4 | 18.2 | 0.00 | 0.00 | 0.00 | 77 | 1009.9 |
| 20260506145229 | 54 | 32 | 10.4 | 18.2 | 0.00 | 0.00 | 0.00 | 78 | 1009.9 |
| 20260506144728 | 54 | 63 | 10.4 | 16.5 | 0.00 | 0.00 | 0.00 | 79 | 1009.7 |
| 20260506144229 | 54 | 36 | 9.6 | 16.5 | 0.00 | 0.00 | 0.00 | 79 | 1009.8 |
| 20260506143727 | 54 | 30 | 9.6 | 18.2 | 0.00 | 0.00 | 0.00 | 80 | 1009.8 |
| 20260506143225 | 53 | 24 | 9.6 | 18.2 | 0.00 | 0.00 | 0.00 | 80 | 1009.8 |
| 20260506142949 | 53 | 33 | 9.6 | 14.8 | 0.00 | 0.00 | 0.00 | 80 | 1009.8 |
| 20260506142226 | 53 | 46 | 9.6 | 16.5 | 0.00 | 0.00 | 0.00 | 80 | 1009.8 |
| 20260506141726 | 53 | 38 | 9.6 | 16.5 | 0.00 | 0.00 | 0.00 | 80 | 1009.9 |
| 20260506141225 | 54 | 34 | 8.7 | 15.6 | 0.00 | 0.00 | 0.00 | 80 | 1009.9 |
| 20260506140722 | 54 | 34 | 9.6 | 16.5 | 0.00 | 0.00 | 0.00 | 80 | 1009.9 |
| 20260506140223 | 55 | 51 | 9.6 | 16.5 | 0.00 | 0.00 | 0.00 | 80 | 1009.9 |
| 20260506135720 | 54 | 39 | 10.4 | 16.5 | 0.00 | 0.00 | 0.00 | 81 | 1009.9 |
| 20260506135221 | 54 | 53 | 10.4 | 16.5 | 0.00 | 0.00 | 0.00 | 80 | 1010.0 |
| 20260506134721 | 54 | 37 | 10.4 | 18.2 | 0.00 | 0.00 | 0.00 | 80 | 1010.0 |
| 20260506134440 | 54 | 16 | 10.4 | 19.1 | 0.00 | 0.00 | 0.00 | 81 | 1009.8 |
| 20260506133718 | 54 | 38 | 8.7 | 19.1 | 0.00 | 0.00 | 0.00 | 80 | 1009.8 |
| 20260506133218 | 54 | 53 | 7.8 | 16.5 | 0.00 | 0.00 | 0.00 | 80 | 1009.9 |
| 20260506132718 | 54 | 51 | 7.8 | 14.8 | 0.00 | 0.00 | 0.00 | 80 | 1009.9 |
| 20260506132217 | 55 | 32 | 7.8 | 20.0 | 0.00 | 0.00 | 0.00 | 80 | 1009.8 |
| 20260506131716 | 54 | 27 | 9.6 | 20.0 | 0.00 | 0.00 | 0.00 | 80 | 1009.7 |
| 20260506131214 | 54 | 28 | 10.4 | 19.1 | 0.00 | 0.00 | 0.00 | 80 | 1009.7 |
| 20260506130714 | 54 | 46 | 10.4 | 17.4 | 0.00 | 0.00 | 0.00 | 79 | 1009.8 |
| 20260506130215 | 55 | 35 | 9.6 | 17.4 | 0.00 | 0.00 | 0.00 | 78 | 1009.8 |
| 20260506125713 | 55 | 56 | 8.7 | 16.5 | 0.00 | 0.00 | 0.00 | 79 | 1009.6 |
| 20260506125431 | 55 | 26 | 7.8 | 16.5 | 0.00 | 0.00 | 0.00 | 78 | 1009.6 |
| 20260506124712 | 55 | 71 | 8.7 | 15.6 | 0.00 | 0.00 | 0.00 | 78 | 1009.7 |
| 20260506124210 | 55 | 28 | 8.7 | 15.6 | 0.00 | 0.00 | 0.00 | 77 | 1009.6 |
| 20260506123709 | 55 | 24 | 8.7 | 17.4 | 0.00 | 0.00 | 0.00 | 77 | 1009.6 |
| 20260506123203 | 55 | 17 | 9.6 | 18.2 | 0.00 | 0.00 | 0.00 | 76 | 1009.5 |
| 20260506122923 | 56 | 32 | 9.6 | 18.2 | 0.00 | 0.00 | 0.00 | 74 | 1009.5 |
| 20260506122202 | 57 | 57 | 7.8 | 13.9 | 0.00 | 0.00 | 0.00 | 71 | 1009.4 |
| 20260506121702 | 57 | 65 | 7.0 | 15.6 | 0.00 | 0.00 | 0.00 | 67 | 1009.4 |
| 20260506121426 | 58 | 26 | 6.1 | 15.6 | 0.00 | 0.00 | 0.00 | 68 | 1009.3 |
| 20260506120933 | 57 | 36 | 7.0 | 15.6 | 0.00 | 0.00 | 0.00 | 68 | 1009.2 |
| 20260506120418 | 56 | 35 | 6.1 | 15.6 | 0.00 | 0.00 | 0.00 | 68 | 1009.3 |
| 20260506115659 | 56 | 34 | 6.1 | 13.9 | 0.00 | 0.00 | 0.00 | 68 | 1009.2 |
| 20260506115154 | 56 | 59 | 7.0 | 16.5 | 0.00 | 0.00 | 0.00 | 67 | 1009.1 |
| 20260506114655 | 56 | 33 | 7.8 | 16.5 | 0.00 | 0.00 | 0.00 | 67 | 1009.1 |
| 20260506114155 | 56 | 31 | 7.0 | 15.6 | 0.00 | 0.00 | 0.00 | 66 | 1009.1 |
| 20260506113654 | 56 | 119 | 7.0 | 13.9 | 0.00 | 0.00 | 0.00 | 68 | 1009.1 |
| 20260506113154 | 56 | 85 | 7.8 | 13.0 | 0.00 | 0.00 | 0.00 | 68 | 1009.1 |
| 20260506112654 | 56 | 53 | 7.8 | 15.6 | 0.00 | 0.00 | 0.00 | 69 | 1009.1 |
| 20260506112154 | 56 | 31 | 7.8 | 15.6 | 0.00 | 0.00 | 0.00 | 69 | 1009.1 |
| 20260506112133 | 56 | 46 | 7.0 | 14.8 | 0.00 | 0.00 | 0.00 | 70 | 1009.2 |
| 20260506111419 | 56 | 70 | 6.1 | 12.2 | 0.00 | 0.00 | 0.00 | 69 | 1009.1 |
| 20260506110648 | 57 | 55 | 5.2 | 12.2 | 0.00 | 0.00 | 0.00 | 71 | 1009.0 |
| 20260506110147 | 56 | 51 | 5.2 | 12.2 | 0.00 | 0.00 | 0.00 | 71 | 1009.0 |
| 20260506110137 | 56 | 40 | 6.1 | 13.0 | 0.00 | 0.00 | 0.00 | 70 | 1009.0 |
| 20260506105141 | 56 | 17 | 6.1 | 13.0 | 0.00 | 0.00 | 0.00 | 70 | 1009.0 |
| 20260506104638 | 56 | 49 | 6.1 | 12.2 | 0.00 | 0.00 | 0.00 | 69 | 1009.1 |
| 20260506104136 | 56 | 0 | 4.3 | 11.3 | 0.00 | 0.00 | 0.00 | 68 | 1009.2 |
| 20260506103636 | 56 | 90 | 4.3 | 10.4 | 0.00 | 0.00 | 0.00 | 69 | 1009.2 |
| 20260506103136 | 56 | 63 | 5.2 | 10.4 | 0.00 | 0.00 | 0.00 | 70 | 1009.2 |
| 20260506102636 | 56 | 345 | 5.2 | 13.0 | 0.00 | 0.00 | 0.00 | 68 | 1009.2 |
| 20260506102136 | 55 | 19 | 5.2 | 13.0 | 0.00 | 0.00 | 0.00 | 69 | 1009.2 |
| 20260506101635 | 55 | 40 | 4.3 | 9.6 | 0.00 | 0.00 | 0.00 | 70 | 1009.1 |
| 20260506101133 | 55 | 0 | 4.3 | 9.6 | 0.00 | 0.00 | 0.00 | 71 | 1009.2 |
| 20260506100632 | 54 | 22 | 4.3 | 9.6 | 0.00 | 0.00 | 0.00 | 71 | 1009.1 |
| 20260506100130 | 54 | 67 | 3.5 | 8.7 | 0.00 | 0.00 | 0.00 | 73 | 1009.1 |
| 20260506095630 | 54 | 18 | 4.3 | 9.6 | 0.00 | 0.00 | 0.00 | 73 | 1009.1 |
| 20260506095130 | 53 | 12 | 4.3 | 9.6 | 0.00 | 0.00 | 0.00 | 72 | 1009.1 |
| 20260506094628 | 53 | 81 | 5.2 | 13.9 | 0.00 | 0.00 | 0.00 | 72 | 1009.2 |
| 20260506094616 | 53 | 40 | 4.3 | 13.9 | 0.00 | 0.00 | 0.00 | 73 | 1009.2 |
| 20260506093628 | 53 | 26 | 4.3 | 11.3 | 0.00 | 0.00 | 0.00 | 73 | 1009.2 |
| 20260506093128 | 53 | 45 | 3.5 | 11.3 | 0.00 | 0.00 | 0.00 | 74 | 1009.2 |
| 20260506092627 | 53 | 47 | 4.3 | 9.6 | 0.00 | 0.00 | 0.00 | 74 | 1009.3 |
| 20260506092609 | 52 | 17 | 4.3 | 9.6 | 0.00 | 0.00 | 0.00 | 74 | 1009.2 |
| 20260506091844 | 52 | 38 | 5.2 | 12.2 | 0.00 | 0.00 | 0.00 | 74 | 1009.2 |
| 20260506091346 | 52 | 45 | 5.2 | 12.2 | 0.00 | 0.00 | 0.00 | 74 | 1009.1 |
| 20260506090624 | 52 | 55 | 5.2 | 10.4 | 0.00 | 0.00 | 0.00 | 75 | 1009.2 |
| 20260506090122 | 52 | 13 | 5.2 | 10.4 | 0.00 | 0.00 | 0.00 | 76 | 1009.1 |
| 20260506085617 | 52 | 20 | 5.2 | 11.3 | 0.00 | 0.00 | 0.00 | 77 | 1009.1 |
| 20260506085114 | 52 | 51 | 4.3 | 11.3 | 0.00 | 0.00 | 0.00 | 77 | 1009.1 |
| 20260506084614 | 52 | 31 | 5.2 | 12.2 | 0.00 | 0.00 | 0.00 | 78 | 1009.2 |
| 20260506084113 | 52 | 38 | 5.2 | 12.2 | 0.00 | 0.00 | 0.00 | 78 | 1009.1 |
| 20260506083610 | 52 | 78 | 4.3 | 10.4 | 0.00 | 0.00 | 0.00 | 79 | 1009.0 |
| 20260506083110 | 52 | 28 | 3.5 | 8.7 | 0.00 | 0.00 | 0.00 | 79 | 1009.0 |
| 20260506082609 | 52 | 13 | 4.3 | 9.6 | 0.00 | 0.00 | 0.00 | 80 | 1009.0 |
| 20260506082102 | 52 | 44 | 5.2 | 13.0 | 0.00 | 0.00 | 0.00 | 80 | 1009.0 |